Temp
14 14 14 14 14 14 14 14 15 15 15 15 15 16 16 16 16 17 17 17 17 17 17 17 18 17 16 16 17 17 17 17 16 16 17 17 17 17 17 17 17 17 17 17 17 17 17 17 17 17 18 17 17 17 17 17 17 17 17 17 17 17 17 17 16 15 16 16 16 17 17 17 16 16 16 16 16 16 16 16 16 16 16 16 15
13 14 14 14 14 14 14 14 15 15 15 15 15 16 16 16 16 17 17 17 17 17 17 17 17 16 16 17 17 17 17 17 16 16 17 17 17 17 17 17 17 17 16 17 17 17 17 17 17 17 17 17 17 17 17 17 17 17 17 17 17 17 17 17 17 16 16 16 16 16 16 16 17 16 16 16 16 16 16 16 16 16 16 16 16
13 13 14 14 14 14 14 14 15 15 15 15 15 15 16 16 16 17 17 17 18 18 17 17 17 16 15 17 17 17 17 17 17 17 17 17 17 17 17 17 17 16 16 16 17 17 17 17 17 17 17 17 17 17 17 17 17 17 17 16 17 17 17 17 17 17 17 16 16 16 16 16 17 17 17 16 16 16 16 16 16 16 16 16 16
12 13 13 14 14 14 14 14 14 15 14 15 15 15 16 16 16 16 17 17 17 17 17 17 16 16 16 17 17 17 17 17 17 17 17 17 17 17 17 17 17 17 16 16 16 16 16 17 17 17 16 17 17 17 17 17 17 17 16 16 16 16 16 17 17 18 17 17 17 17 17 17 17 17 17 16 16 16 16 16 16 16 16 16 16
12 13 13 14 14 14 14 14 14 14 14 14 15 15 15 16 16 16 16 16 16 16 16 16 16 16 17 17 17 17 17 17 17 17 17 17 17 17 17 17 17 17 17 17 16 16 16 17 17 17 16 16 17 17 17 17 17 17 16 16 16 16 16 16 17 17 18 17 17 17 16 16 16 16 17 16 16 15 15 15 16 16 16 16 16
10 11 12 13 14 14 14 14 14 14 14 14 14 14 14 14 15 15 16 16 15 17 16 15 15 17 17 17 17 17 17 17 17 17 17 17 17 17 17 17 17 17 17 17 16 16 17 17 17 17 16 16 17 17 17 17 17 17 16 16 15 16 16 16 16 17 17 18 17 16 16 16 16 16 16 16 16 16 15 15 15 15 15 15 16
9 10 11 12 13 14 14 14 14 14 14 14 14 14 14 14 14 15 16 15 14 15 16 15 15 16 17 17 17 17 17 17 17 17 17 17 17 17 17 17 17 17 17 17 17 17 17 17 17 17 17 17 17 17 17 17 17 17 16 16 15 16 16 16 16 16 17 17 16 16 16 16 16 16 16 16 15 15 15 15 15 16 16 16 16
8 9 9 10 11 12 13 14 14 14 14 14 14 14 15 15 14 15 16 15 15 14 15 16 16 16 16 17 17 17 17 17 17 17 17 17 17 17 17 17 17 17 17 17 17 17 17 17 17 17 17 17 17 17 17 17 17 16 16 16 16 16 16 17 16 16 17 17 16 16 16 15 15 15 15 15 14 14 15 15 15 16 16 16 16
7 8 8 9 10 11 12 13 13 14 14 14 14 14 15 15 15 15 15 16 16 15 15 16 17 16 16 17 17 17 17 17 17 17 17 17 17 17 17 17 17 17 17 17 17 17 17 17 17 17 17 17 16 17 16 16 16 16 16 16 16 16 16 17 17 17 17 16 16 15 15 14 14 14 14 14 15 16 16 15 15 17 16 16 16
6 7 8 8 9 10 11 12 13 13 14 14 14 14 14 15 15 15 15 15 16 16 15 16 16 16 17 17 17 17 17 17 17 17 17 17 17 17 17 17 17 17 17 17 17 17 17 17 17 17 17 17 16 16 16 16 16 16 16 16 16 16 17 17 17 17 17 16 16 15 14 14 15 15 15 16 17 17 16 15 16 16 15 14 15
6 6 7 8 9 9 10 10 11 13 14 14 14 14 15 15 15 15 15 15 16 16 16 16 16 16 17 17 17 17 17 17 17 17 17 17 17 17 17 17 17 17 17 17 17 17 17 17 17 17 17 17 16 16 16 16 16 16 16 17 17 17 17 17 17 18 17 16 16 16 15 16 16 16 16 16 16 15 15 15 15 15 14 13 14
6 6 6 7 8 9 9 10 10 12 13 14 14 14 15 15 15 15 16 15 15 15 16 16 15 16 17 17 17 17 17 17 17 17 17 17 17 17 17 17 17 17 17 17 17 18 17 17 17 17 17 17 16 15 15 15 15 15 16 17 17 17 17 18 18 18 18 17 16 15 16 16 16 15 15 15 15 15 15 15 14 14 14 13 13
6 6 6 6 7 8 9 10 10 11 12 13 14 14 14 15 15 15 15 14 14 14 15 15 15 16 16 16 16 16 16 17 17 17 17 17 17 17 17 17 17 17 17 17 17 17 17 17 17 17 17 17 16 15 15 15 15 14 14 15 16 16 16 17 17 17 18 17 16 15 15 15 15 15 15 14 15 15 15 15 15 14 14 14 14
6 6 6 6 6 7 8 9 10 10 11 13 13 13 14 15 14 14 14 14 13 14 14 15 15 15 16 16 16 16 16 16 17 17 17 17 17 17 17 18 17 17 18 17 17 17 16 17 17 17 17 16 16 16 15 15 15 14 14 14 15 15 15 15 16 16 16 16 16 15 14 14 14 14 14 14 14 14 14 14 14 14 14 14 14
6 6 6 6 6 6 7 8 9 9 10 12 12 13 14 14 13 13 13 13 13 13 14 14 15 15 15 15 15 15 16 16 16 17 17 17 17 17 18 17 17 17 17 16 16 15 15 16 17 17 17 16 16 16 15 15 15 14 14 14 14 14 14 14 14 14 15 15 15 14 14 13 13 13 13 13 14 14 14 13 13 13 13 13 13
6 6 6 6 6 6 6 7 8 9 8 9 11 13 13 13 12 12 12 12 11 12 12 13 14 14 14 14 15 15 15 16 16 17 17 17 17 17 17 17 17 16 16 15 14 14 14 15 16 17 16 16 16 16 15 15 15 14 14 14 14 14 14 13 13 13 13 13 14 13 13 13 13 13 13 13 13 13 13 13 13 13 12 12 13
6 6 6 6 6 6 6 7 8 8 8 8 8 10 11 12 12 12 11 10 10 10 11 11 13 13 13 14 14 15 15 15 15 16 17 17 17 17 17 16 16 15 14 14 14 14 14 14 15 15 15 16 16 16 15 15 15 14 14 13 13 13 13 12 13 13 13 13 13 13 13 13 13 13 13 13 13 13 13 13 12 12 12 11 11
6 6 6 6 6 7 7 6 7 8 8 7 6 7 9 10 11 11 10 10 9 9 9 10 11 12 13 13 14 14 14 14 15 16 16 16 17 17 16 16 14 14 13 13 13 13 13 13 14 14 14 15 14 14 14 15 14 14 13 13 13 13 12 12 12 12 12 12 12 12 13 12 13 13 13 13 12 13 13 12 11 11 11 10 10
6 6 6 7 7 7 7 7 7 7 8 8 7 6 6 7 8 9 9 9 8 8 8 9 10 11 11 12 13 13 13 13 14 15 15 15 16 16 16 15 14 12 12 12 12 13 13 13 13 13 14 13 13 13 13 14 14 13 13 13 13 13 12 12 12 12 12 12 12 12 12 11 11 11 11 11 11 11 11 11 10 10 10 10 9
6 6 7 8 8 8 8 8 7 7 7 8 7 6 5 5 5 6 7 7 8 7 7 8 9 9 10 11 11 11 12 11 12 13 14 14 15 15 15 15 13 12 12 12 12 12 12 12 12 13 13 13 13 13 13 13 14 13 13 14 13 12 12 12 12 12 12 12 11 11 11 11 10 10 10 10 10 10 10 10 10 9 9 9 9
7 7 7 8 8 8 8 8 8 8 7 8 8 7 6 5 4 4 5 5 6 7 6 6 7 7 8 10 10 10 11 10 10 11 12 13 13 13 14 14 13 12 11 11 11 11 11 11 12 12 12 13 13 13 13 13 13 13 13 13 13 12 11 12 11 11 11 11 10 10 10 10 10 9 9 9 9 9 9 9 9 8 8 8 8
8 7 7 7 7 8 8 8 8 8 8 8 8 8 7 6 5 4 4 4 5 6 6 5 5 5 6 8 9 9 9 10 9 10 11 11 11 12 12 12 11 12 11 10 10 10 10 10 10 11 12 12 12 12 13 12 12 12 12 12 12 11 11 11 11 11 10 10 10 9 9 9 9 8 8 8 8 8 8 8 8 8 8 8 8
8 8 7 7 6 7 8 8 8 8 8 8 8 8 8 8 7 6 5 4 4 5 5 5 5 4 5 6 7 7 8 8 9 9 9 10 10 10 10 10 10 11 11 10 9 9 9 8 9 10 11 11 11 11 11 11 11 11 11 11 11 10 10 10 10 10 10 10 9 9 8 8 8 8 7 7 7 7 7 7 7 7 7 7 7
8 8 7 7 6 6 7 7 8 7 7 7 7 7 7 8 7 7 6 6 5 4 5 5 5 4 4 4 5 6 7 7 7 7 7 8 8 8 8 9 9 9 9 9 8 8 8 8 8 9 10 10 10 10 10 10 10 10 10 10 10 10 10 10 10 10 9 9 8 7 7 7 7 7 6 6 6 7 7 7 7 7 7 7 7
8 8 8 7 7 6 6 6 7 7 7 7 7 7 7 7 7 6 6 7 6 5 5 5 5 4 4 4 5 6 6 6 6 6 6 7 7 7 7 7 8 8 8 8 8 7 7 7 8 8 9 9 9 9 9 9 9 9 9 9 9 9 9 9 9 9 8 7 7 6 6 6 6 6 6 6 6 6 7 7 7 7 7 7 7
8 8 8 7 7 7 6 6 6 6 7 7 7 7 6 6 6 6 6 6 6 6 5 5 5 4 4 4 4 5 5 6 6 6 6 6 6 6 6 7 7 7 8 7 7 7 7 7 7 8 8 8 8 8 8 8 8 8 8 8 8 8 8 8 8 7 6 6 6 6 5 5 6 6 6 6 6 6 6 6 6 6 6 6 6
8 8 8 8 7 7 7 6 6 6 6 6 6 6 6 6 6 6 6 6 6 6 6 6 5 5 5 5 5 5 5 6 6 6 6 6 6 6 6 6 6 7 7 7 7 7 7 7 7 7 7 7 7 7 7 7 7 7 7 7 7 7 7 7 6 6 5 5 5 5 5 5 5 5 5 5 5 5 4 4 4 4 4 4 5
8 8 8 8 7 7 7 6 6 6 5 5 5 5 5 5 5 5 5 5 5 5 6 5 5 6 6 6 6 6 6 6 6 6 6 6 6 6 6 7 7 7 7 7 6 6 6 6 6 6 6 6 6 6 6 6 6 6 6 6 6 6 6 6 5 5 5 5 5 5 5 5 4 4 4 4 4 4 4 3 3 3 4 4 4
8 8 8 8 7 7 7 7 6 6 5 5 5 4 4 5 5 4 4 5 5 5 5 5 5 5 5 5 6 6 5 5 6 6 6 6 6 7 7 7 7 6 6 6 6 6 6 6 6 6 6 6 6 6 6 6 5 5 5 5 5 5 5 5 5 4 4 4 4 4 4 4 3 3 3 3 3 3 3 3 3 3 3 4 4
8 7 7 7 7 7 7 7 6 6 6 5 5 4 4 4 4 5 5 5 5 5 5 4 4 5 5 5 5 5 6 6 6 6 6 6 7 7 7 7 6 6 6 6 6 6 6 6 6 6 6 6 5 5 5 5 5 4 4 4 4 4 4 4 4 4 4 4 3 3 3 3 3 2 3 3 3 3 3 3 3 3 3 3 3
8 7 7 7 7 7 7 7 6 6 6 5 5 5 4 4 4 4 4 4 5 5 4 4 4 4 5 5 5 5 5 6 6 6 6 6 7 7 7 7 6 6 6 7 7 7 6 6 5 5 5 5 4 4 4 4 4 4 4 3 3 3 3 3 3 3 3 3 2 2 2 2 2 2 2 2 2 2 3 3 3 2 2 3 3
8 7 7 7 7 7 7 7 7 7 6 6 5 5 4 4 3 3 4 4 4 4 4 4 4 4 5 5 5 5 6 6 6 6 6 6 7 7 7 7 7 7 7 8 7 5 5 5 4 4 4 4 4 4 4 3 3 3 3 3 2 2 2 2 2 2 2 2 2 2 2 2 2 2 2 2 2 2 2 2 2 2 2 2 2
8 7 7 7 7 7 7 7 7 7 7 6 6 5 5 4 3 3 3 3 4 4 4 4 4 4 5 5 5 6 6 6 6 6 6 6 6 6 6 6 6 7 7 7 6 5 4 4 4 3 3 3 3 3 3 3 3 3 2 2 2 2 2 2 2 2 2 2 2 2 1 1 1 1 1 1 1 1 1 2 2 2 2 2 2
7 7 7 7 7 7 7 7 7 7 7 6 6 5 5 5 4 4 4 4 4 4 4 4 4 4 5 5 5 5 5 5 5 5 6 6 6 6 6 6 6 6 7 6 5 4 4 4 3 3 3 3 3 3 2 2 2 2 2 2 2 1 1 2 2 2 2 2 1 1 1 1 1 1 1 1 1 1 1 1 1 1 1 1 1
7 7 7 7 7 7 7 7 7 7 7 6 6 5 5 5 5 5 5 5 4 4 4 4 4 4 4 4 4 5 5 5 5 5 5 5 5 6 6 5 5 5 5 5 4 4 3 3 3 3 3 3 2 2 2 2 2 2 2 1 1 1 1 2 2 1 1 1 1 1 1 1 1 0 1 1 0 0 0 0 1 1 1 1 1
7 7 7 7 7 6 6 6 7 7 7 6 6 6 5 6 6 5 5 5 5 4 4 4 4 4 4 4 4 4 4 4 4 4 5 5 5 5 5 5 4 3 3 3 3 3 3 2 2 2 2 2 2 2 2 2 1 1 1 1 1 1 1 1 1 1 1 1 1 0 0 0 0 0 0 0 0 0 0 0 0 0 1 1 1
6 6 7 7 7 6 6 6 6 6 7 6 6 6 5 5 5 5 5 5 5 5 4 4 3 3 3 3 4 4 4 4 4 4 4 4 4 5 5 4 3 3 2 2 2 2 2 2 2 2 2 2 2 2 1 1 1 1 1 1 1 1 1 1 1 1 1 1 0 0 0 0 0 0 0 1 0 0 0 1 1 1 1 1 1
6 6 6 6 7 7 7 6 6 6 6 6 6 6 6 5 5 5 4 4 5 5 5 4 4 3 3 3 3 3 3 3 3 3 3 3 3 3 3 3 3 2 2 1 2 2 2 2 2 2 2 2 2 1 1 1 2 2 2 1 1 1 1 1 1 1 1 1 1 1 1 1 1 1 1 1 1 1 1 1 1 1 1 1 1
6 6 6 6 7 7 7 7 6 6 6 6 6 6 6 5 5 4 4 4 4 4 4 4 3 3 3 3 3 3 3 3 3 2 2 2 2 2 2 2 2 2 1 1 1 1 2 1 1 1 1 2 2 2 2 2 2 2 1 1 1 1 1 1 1 1 1 1 1 1 1 1 1 1 1 1 1 1 1 1 1 1 1 1 1
6 6 6 6 7 7 7 7 7 6 6 6 6 6 6 5 5 5 4 4 4 4 4 3 3 3 3 3 3 3 3 2 2 2 1 1 1 1 1 1 1 1 1 1 1 1 1 1 1 1 2 2 2 2 2 1 1 1 1 1 1 1 1 1 1 1 1 1 1 1 1 1 1 1 1 1 1 1 2 2 2 2 1 1 1
6 6 6 6 6 7 7 7 7 7 6 6 6 6 6 5 5 5 4 4 4 3 3 3 3 3 3 3 2 2 2 2 1 1 1 1 1 1 1 1 0 0 0 1 1 1 1 1 2 2 2 2 2 2 1 1 1 1 1 1 1 1 1 1 1 1 1 1 1 2 2 2 2 2 2 2 2 2 2 2 2 2 2 2 2
6 6 6 6 6 7 7 7 7 7 6 6 6 6 6 5 5 5 4 4 4 3 3 3 3 2 2 2 2 2 1 1 0 0 0 0 0 0 0 0 0 0 0 0 1 1 1 1 1 2 2 2 2 2 1 1 1 1 1 1 1 1 1 1 1 1 1 1 1 1 2 2 2 2 2 2 2 2 2 2 2 2 2 2 2
5 5 5 5 6 6 6 7 7 7 6 6 6 5 5 5 5 5 4 4 4 3 3 3 2 2 2 2 1 1 1 0 -0 0 0 0 0 0 0 0 -0 -0 -0 0 1 1 1 1 1 1 1 1 1 1 1 1 1 1 1 1 1 1 1 1 1 1 1 1 1 1 1 2 2 2 2 2 2 2 2 2 2 2 2 2 2
5 5 5 5 5 6 6 6 6 6 6 6 6 5 5 5 5 5 4 4 3 3 3 3 2 2 2 2 1 1 1 1 0 0 0 0 0 0 0 0 0 -0 -0 0 0 1 1 1 1 1 1 1 1 1 1 1 1 1 1 1 1 1 1 1 1 1 1 1 1 1 1 1 1 1 1 1 1 2 2 2 2 2 2 2 2
5 5 5 5 5 6 6 6 6 6 6 6 6 5 5 5 5 5 4 4 4 3 3 3 2 2 2 2 1 1 1 1 1 1 1 1 1 1 0 0 0 0 0 0 0 0 1 1 1 1 1 1 1 1 1 1 1 1 1 1 1 1 1 1 1 1 1 1 1 1 1 1 1 1 1 1 1 1 2 2 2 2 2 2 2
5 5 5 5 5 5 6 6 6 6 6 6 6 5 5 5 5 5 4 4 4 3 3 3 3 2 2 2 2 2 2 2 1 1 1 1 1 1 1 1 1 1 0 1 1 1 1 1 1 1 1 1 1 1 1 1 1 1 1 0 1 1 1 1 1 1 1 1 1 1 1 1 1 1 1 1 1 1 1 2 2 2 2 2 2
5 5 5 5 5 5 5 5 6 6 6 6 6 5 5 5 5 4 4 4 3 3 3 3 3 2 2 2 2 2 2 2 2 2 2 2 1 1 1 1 1 1 1 1 1 1 1 1 1 1 1 1 1 1 1 0 1 1 0 0 0 0 0 1 1 1 1 1 1 1 1 1 1 1 1 1 1 1 1 2 2 2 2 2 2
5 5 5 5 5 5 5 5 6 6 6 6 6 5 5 5 5 4 4 4 3 3 3 3 3 2 2 2 2 2 2 2 2 2 2 2 2 2 1 1 1 1 1 1 1 0 0 0 0 1 1 0 0 0 0 0 0 0 0 0 0 0 0 1 1 1 1 1 1 1 1 1 1 1 1 1 1 1 1 1 2 2 2 2 2
5 5 6 6 6 6 6 5 5 6 6 6 5 5 5 5 4 4 4 3 3 3 3 3 3 2 2 2 2 2 2 2 2 2 2 2 2 2 2 1 1 1 1 1 1 1 0 0 0 0 0 0 0 0 0 0 0 0 0 0 0 0 0 1 1 1 1 1 1 1 1 1 1 1 1 1 1 1 1 1 1 2 2 2 2
5 5 6 6 6 6 6 6 6 6 6 6 5 5 5 5 4 4 4 3 3 3 3 3 3 2 2 2 2 2 2 2 2 2 2 2 2 2 2 1 1 1 1 1 1 1 0 0 0 0 0 0 0 0 0 0 0 0 0 0 0 0 0 0 1 1 1 1 1 1 1 0 0 0 1 1 1 1 1 1 1 1 2 2 2
5 5 6 6 6 6 6 6 6 5 5 5 5 5 5 5 4 4 4 3 3 3 3 3 3 3 2 2 2 2 2 2 2 2 2 2 2 2 2 1 1 1 1 1 1 1 1 0 0 0 -0 -0 -0 -0 -0 -0 -0 0 0 0 0 0 0 0 0 0 0 1 1 1 1 0 0 0 0 1 0 0 0 0 1 1 2 2 2
Height
775 775 775 775 775 775 775 776 775 775 775 775 777 778 780 782 783 785 786 788 790 790 791 794 795 797 799 801 802 803 804 805 808 811 812 813 815 817 818 819 821 822 824 825 827 828 830 831 833 835 836 838 839 841 842 844 845 846 847 849 850 851 852 853 854 855 856 857 858 860 861 862 863 864 865 866 866 867 868 869 870 870 870 871 872
775 774 774 774 774 774 774 775 775 775 775 775 775 776 778 780 782 784 785 786 788 789 790 792 794 797 799 800 802 803 804 806 808 809 811 812 813 815 817 818 819 821 822 824 825 827 828 830 832 834 835 837 838 839 841 842 844 845 846 847 848 850 851 852 853 854 855 856 857 858 859 860 861 862 863 864 865 866 867 867 868 869 869 870 870
775 774 774 774 773 773 773 774 773 774 774 775 775 776 777 779 780 782 783 784 785 787 789 790 793 797 798 799 801 803 804 806 807 808 809 811 812 814 815 816 818 819 821 822 824 825 827 828 830 832 834 835 837 838 840 841 842 843 844 846 847 848 850 851 852 853 853 854 855 856 857 858 859 860 862 863 864 865 865 866 867 867 868 868 869
774 774 773 773 773 772 773 773 772 772 772 773 775 776 777 778 779 780 781 782 783 785 788 790 793 796 797 798 800 802 803 805 806 807 808 810 811 812 813 815 816 818 819 821 822 824 825 827 829 831 832 834 835 837 838 839 840 842 843 845 846 848 849 850 850 851 852 852 853 854 854 856 857 859 861 862 863 864 864 865 866 866 867 867 867
775 774 774 773 772 771 772 772 771 771 772 773 775 776 777 778 778 780 781 781 783 785 788 790 792 794 796 797 799 800 802 803 805 806 807 809 810 811 812 813 814 816 817 819 821 822 824 825 827 829 830 831 833 835 836 837 839 840 841 842 845 846 847 848 849 850 850 850 850 852 853 854 855 857 859 860 861 862 863 864 864 865 865 866 866
776 775 774 773 772 771 770 770 770 771 772 774 776 777 778 779 779 780 781 781 783 784 787 790 792 792 794 796 798 799 801 802 803 805 806 807 809 810 811 812 813 814 816 817 819 821 822 824 826 827 828 829 831 833 834 835 837 838 839 840 843 844 845 846 848 849 849 848 849 850 851 851 853 854 856 858 859 859 861 862 863 863 863 863 863
777 776 774 773 771 770 769 769 769 770 772 773 774 774 776 780 781 781 780 782 783 783 785 789 791 792 793 795 797 798 800 801 802 804 805 806 808 809 810 811 812 813 815 816 818 820 821 823 824 826 827 828 829 831 832 833 835 836 837 839 841 842 843 844 846 847 847 846 847 848 848 849 851 852 854 856 858 859 859 860 860 860 861 861 860
778 776 775 773 771 770 768 768 768 769 770 771 771 771 772 775 780 781 781 782 783 783 785 787 789 792 794 794 795 797 798 800 801 802 804 805 807 808 809 810 812 813 814 816 817 819 820 822 823 824 825 827 828 829 830 832 833 834 836 837 838 840 841 842 843 844 844 844 844 845 846 848 849 851 853 855 856 856 856 857 857 857 857 858 858
778 776 773 772 771 770 768 767 767 768 768 768 769 770 770 772 776 780 781 782 782 784 786 786 787 790 793 793 795 796 797 799 800 801 803 804 806 807 808 809 811 812 813 815 817 818 819 820 822 823 824 825 827 828 829 830 831 833 834 835 836 837 838 839 840 840 841 841 842 844 845 846 847 849 851 851 851 851 852 854 854 853 855 856 856
779 776 773 771 770 768 767 766 766 766 766 766 766 767 769 770 773 777 780 781 782 783 785 785 786 789 791 792 793 794 796 798 799 800 802 803 805 806 807 808 810 811 812 814 815 817 818 819 820 821 823 823 825 826 828 829 830 831 833 833 834 835 836 836 837 837 837 838 839 841 843 843 844 846 846 847 847 849 850 851 851 851 853 854 853
781 778 775 771 769 767 765 764 765 765 764 764 765 766 767 768 770 773 777 780 781 782 783 784 785 788 791 792 793 793 795 796 798 799 801 802 804 805 806 807 808 810 811 812 814 815 816 817 818 820 821 822 823 825 827 828 829 830 831 832 832 833 833 833 834 834 834 835 836 838 839 840 841 842 843 844 846 847 848 849 849 850 852 853 852
784 780 777 773 769 766 764 763 763 763 762 762 762 764 765 766 768 771 774 777 780 781 781 782 785 788 790 791 792 793 794 795 797 798 800 802 803 804 805 806 807 809 810 811 812 813 814 815 817 818 820 821 822 824 825 827 828 829 831 830 830 830 830 830 831 831 831 832 834 836 837 839 840 842 843 844 845 846 847 847 848 849 850 851 851
787 783 779 775 770 767 764 761 760 760 760 760 760 762 763 764 766 768 771 775 779 779 779 781 785 787 789 790 791 792 793 794 795 797 799 801 803 804 805 806 807 808 809 810 811 812 813 814 816 818 819 820 821 823 824 826 828 830 831 830 828 829 829 828 829 829 830 831 833 835 837 839 840 842 842 843 844 845 845 846 846 847 848 849 848
790 786 781 777 774 769 765 762 760 759 759 758 759 760 761 762 764 767 769 773 777 778 778 781 784 786 788 789 791 791 792 793 794 796 798 800 802 803 804 805 806 807 808 808 809 811 812 814 815 817 818 820 821 822 824 826 827 830 832 831 829 828 828 828 828 829 830 832 833 835 837 839 840 841 842 843 843 843 844 844 845 846 846 847 847
793 789 785 781 776 772 769 765 761 758 758 757 759 759 760 761 764 766 769 772 775 777 777 779 783 785 787 789 790 791 792 793 794 795 797 799 801 802 803 804 805 806 807 808 809 810 812 813 815 816 818 819 821 822 823 825 827 829 831 832 831 829 829 829 830 830 831 832 833 835 837 838 840 841 841 842 843 843 843 844 845 845 846 846 847
796 792 789 785 780 776 772 768 764 761 759 758 760 760 759 760 763 765 768 772 776 777 778 779 781 784 787 788 789 790 792 793 794 795 796 798 800 801 802 803 804 805 807 808 809 811 812 813 814 816 818 819 821 822 823 825 827 828 829 830 830 829 830 831 831 831 833 833 834 835 837 838 840 840 841 842 842 842 843 843 844 845 845 846 846
800 797 793 789 785 780 776 773 768 764 762 761 763 762 759 758 761 765 768 771 775 778 779 780 781 784 786 787 788 789 791 793 794 794 795 797 798 800 801 803 804 805 807 809 810 811 813 814 815 816 818 819 821 822 824 824 826 827 828 829 830 830 831 832 833 833 834 835 836 837 837 838 839 840 841 841 842 842 842 843 843 844 844 845 845
804 801 797 793 789 785 781 778 773 769 766 765 766 767 763 760 761 765 768 771 774 778 781 781 782 784 786 787 788 789 790 792 794 794 796 797 798 799 800 802 804 806 808 809 811 812 813 815 817 818 819 820 821 823 824 825 826 826 828 829 830 831 832 833 833 834 835 836 837 838 838 839 839 840 840 841 841 841 841 842 842 843 843 843 843
809 805 802 798 794 790 786 783 779 774 771 769 771 774 772 767 765 766 769 772 774 778 781 782 782 784 786 786 788 789 790 792 793 795 796 797 798 799 799 801 804 806 808 810 812 814 815 816 818 819 820 821 823 824 826 826 826 827 828 829 830 831 832 833 834 835 836 837 838 838 839 839 840 840 840 840 840 840 840 841 841 841 841 841 841
812 809 806 802 798 795 791 788 785 781 777 774 775 780 782 778 773 771 772 774 775 779 783 782 782 785 786 786 788 789 790 793 795 796 796 797 798 799 800 801 804 807 809 810 812 814 816 817 819 820 821 822 823 825 826 827 827 828 828 829 829 831 832 833 834 835 835 836 837 838 839 839 840 840 840 840 840 840 840 840 840 840 840 840 840
815 813 810 806 802 799 796 793 790 788 785 780 778 784 790 789 784 780 780 779 777 779 784 785 784 786 787 786 788 790 792 794 797 798 798 798 799 800 801 802 804 807 809 811 813 815 817 818 819 820 821 822 823 825 826 827 828 828 828 829 829 831 832 832 833 834 835 835 836 837 838 839 839 839 839 839 840 840 840 840 840 840 840 840 840
818 815 813 810 807 803 801 799 796 794 792 788 784 787 794 796 793 789 788 787 783 781 785 789 789 790 790 789 789 792 794 797 799 801 800 801 802 803 803 804 806 808 809 812 814 816 818 820 820 821 822 822 823 824 825 826 828 828 828 829 830 831 832 833 833 834 834 835 836 837 837 838 838 839 839 839 839 840 840 840 840 840 839 839 839
820 818 815 813 811 808 805 803 801 799 798 796 793 793 796 799 799 798 796 795 792 788 788 792 794 794 794 793 794 796 797 799 801 803 804 803 804 806 806 808 810 811 811 813 816 817 819 821 822 822 822 822 824 825 826 827 828 829 829 830 831 832 832 833 833 834 834 835 835 836 837 837 838 838 838 838 839 839 839 839 839 839 838 838 837
822 820 818 816 814 812 809 807 806 805 804 803 802 801 801 801 803 805 803 802 801 797 794 795 798 798 798 799 799 800 801 801 804 807 807 806 807 808 809 811 813 813 814 815 817 818 820 822 823 823 822 822 824 827 828 829 829 830 831 832 832 833 834 834 834 834 835 835 836 837 837 838 838 838 838 838 838 838 838 838 837 837 836 836 835
825 823 821 819 817 816 814 811 809 808 808 808 807 807 807 806 807 809 809 808 807 806 803 801 802 802 802 803 803 803 804 805 807 810 810 810 810 811 812 814 815 816 817 817 818 819 822 823 824 824 823 823 826 828 830 831 831 832 833 833 834 835 835 835 836 836 836 837 838 838 839 839 839 839 838 838 838 837 836 836 835 835 833 833 832
828 826 824 822 820 819 817 816 814 812 811 811 811 811 812 812 812 813 814 813 812 811 810 808 806 806 806 807 808 809 809 811 812 813 813 813 813 814 815 817 818 819 819 819 820 821 823 824 824 824 824 825 827 829 831 832 833 833 834 834 835 836 837 837 837 837 838 839 839 839 839 839 839 839 839 838 837 836 835 834 833 832 831 830 830
830 829 827 826 824 822 821 820 818 817 815 814 814 814 814 814 815 816 817 817 816 815 814 813 811 811 811 812 813 814 814 815 816 816 817 817 817 818 818 819 820 821 821 821 822 823 825 825 826 826 826 827 828 830 831 833 834 834 834 835 836 837 838 839 839 839 839 840 840 840 840 840 839 839 838 838 837 836 835 834 833 832 831 830 830
833 832 830 829 827 826 825 824 822 821 820 819 818 817 817 817 817 818 818 819 818 818 817 816 816 816 816 816 817 817 818 819 819 820 821 821 821 821 820 820 821 822 823 823 824 825 826 827 827 827 827 828 829 831 832 834 834 835 836 837 838 839 840 840 840 840 840 840 840 840 840 839 839 838 838 837 837 836 836 835 834 833 832 831 830
836 834 833 831 830 829 829 827 826 825 824 823 822 821 821 821 820 820 820 820 820 819 818 818 818 818 819 819 820 820 821 822 823 824 824 824 823 822 821 821 821 822 824 825 825 826 827 828 828 829 829 830 832 833 834 835 836 837 838 839 840 841 841 841 840 840 840 840 840 840 840 840 839 839 838 838 837 837 836 835 834 833 832 831 830
838 837 835 834 833 832 831 831 830 828 827 826 826 825 825 825 824 823 823 822 822 821 821 821 821 821 821 821 821 822 822 823 825 825 825 825 824 823 822 822 823 824 825 826 826 826 828 829 830 831 832 833 834 836 837 838 838 839 840 841 841 841 841 841 840 841 841 841 840 840 840 840 840 839 839 838 838 837 837 836 835 834 832 832 831
840 839 838 836 835 834 834 833 833 832 831 830 829 828 828 828 828 827 826 826 825 825 824 824 824 824 823 823 823 823 824 825 826 827 826 826 825 825 824 825 825 826 827 827 827 828 829 830 832 834 835 836 837 838 839 840 840 841 841 841 842 842 841 841 842 842 842 841 841 841 841 841 841 840 840 839 839 838 837 836 835 834 833 833 833
841 840 839 838 837 837 836 835 834 834 834 833 832 831 831 831 831 831 831 830 829 829 828 828 828 827 826 826 826 826 826 826 827 827 827 827 826 826 826 827 828 828 828 828 828 830 831 832 834 836 837 838 839 840 840 841 841 841 842 842 842 843 843 843 843 843 843 842 842 842 842 842 842 841 840 840 839 838 837 837 836 836 835 835 834
843 842 841 840 839 838 838 837 836 835 835 835 835 834 833 833 833 834 834 834 833 832 832 831 831 830 829 829 828 828 828 828 828 829 829 828 828 828 828 829 829 830 829 829 829 831 832 834 835 837 838 839 840 841 841 841 842 842 842 842 843 843 844 844 844 843 843 843 843 843 843 842 842 841 841 841 840 840 839 839 838 838 837 836 836
844 843 842 841 841 840 839 839 838 837 836 836 836 836 836 835 835 836 836 835 835 835 834 834 833 833 832 831 831 830 830 830 830 830 830 830 830 830 829 830 830 831 831 830 831 832 834 835 837 838 839 840 841 841 842 842 842 843 843 843 843 844 844 845 844 844 844 844 844 843 843 843 843 843 843 842 842 842 841 840 840 839 838 838 837
845 844 843 842 842 841 841 840 840 839 838 838 838 838 838 838 837 837 837 836 836 836 836 835 835 835 834 834 834 833 833 833 833 833 832 832 832 832 831 831 832 832 833 833 833 834 836 837 838 839 840 841 842 842 842 843 843 843 843 844 844 845 845 845 845 845 845 845 844 844 844 845 845 844 844 843 843 842 842 841 841 840 840 839 838
846 845 844 844 843 842 842 842 841 841 840 840 839 839 839 839 838 838 838 837 837 836 836 836 836 836 836 835 835 835 835 835 835 835 834 834 834 834 833 833 833 834 834 835 836 836 837 839 840 841 842 842 843 843 843 843 844 844 844 845 845 845 846 846 846 846 846 846 846 846 846 846 846 845 845 844 844 843 843 843 842 842 841 840 839
847 846 846 845 844 843 843 843 843 842 842 841 841 840 840 840 839 839 839 838 838 838 837 837 837 837 837 837 837 836 836 836 836 836 836 835 835 835 834 834 834 835 836 837 837 838 839 840 841 842 843 843 844 844 844 844 844 845 845 845 846 846 847 847 848 848 848 848 848 848 848 847 847 846 846 845 845 845 845 844 843 843 842 841 840
848 848 847 846 845 844 844 844 844 844 843 843 842 842 841 841 841 840 840 840 840 839 839 838 838 838 838 838 838 837 837 837 836 836 836 836 835 835 835 835 835 836 837 838 839 840 841 842 843 844 844 845 845 845 845 845 845 845 846 846 847 848 848 849 849 849 849 849 849 848 848 848 847 847 847 847 847 846 846 845 844 844 843 842 840
849 849 848 847 846 845 845 844 844 844 844 844 844 843 843 842 842 842 842 841 841 840 840 839 839 839 839 839 839 838 838 837 837 836 836 836 836 836 836 836 837 837 838 840 841 842 842 843 844 845 846 846 846 846 846 846 846 847 847 848 849 849 850 851 851 851 850 850 849 849 849 849 848 848 848 848 848 847 846 846 845 844 843 841 840
850 849 849 848 847 846 845 844 844 844 844 844 844 844 844 843 843 843 842 842 842 841 841 841 841 840 840 840 840 839 838 838 837 837 837 837 838 838 838 839 839 840 840 841 842 843 844 845 846 846 847 847 847 847 847 847 848 848 849 850 850 851 851 851 851 851 850 850 850 850 849 849 849 849 849 849 848 847 846 845 844 843 842 841 840
851 850 849 848 847 846 845 845 845 845 845 845 845 844 844 844 844 843 843 843 843 842 842 842 842 842 842 842 841 840 839 839 839 839 839 839 839 840 840 841 841 842 842 843 844 845 846 846 847 847 847 848 848 848 848 849 849 850 851 851 852 852 852 852 851 851 851 850 850 850 850 850 850 850 850 849 848 847 846 845 844 843 842 841 840
851 850 850 849 848 847 846 846 845 845 845 845 845 845 845 845 844 844 844 843 843 843 843 843 843 843 843 843 842 842 841 840 840 840 840 841 841 842 842 843 843 843 844 845 845 846 847 847 847 848 848 848 849 849 850 850 851 851 851 852 852 852 851 851 851 851 851 851 852 852 852 851 851 851 850 849 848 848 847 846 845 843 842 841 841
852 851 850 849 849 848 847 846 846 846 846 846 846 846 846 845 845 845 844 844 844 844 844 844 844 844 844 844 844 843 842 842 841 841 842 842 843 843 843 844 844 845 845 846 847 847 848 848 848 848 849 850 850 851 851 851 852 852 852 852 852 851 851 851 852 852 853 853 853 853 852 852 851 851 850 849 849 848 847 846 845 844 843 842 842
853 852 851 850 850 849 848 847 847 847 847 847 847 846 846 846 846 846 845 845 845 845 845 845 845 845 845 845 845 845 844 844 844 843 843 844 844 844 844 845 845 845 846 846 847 848 848 849 849 850 850 851 851 852 852 852 852 852 852 851 851 851 852 852 853 853 854 854 853 853 852 852 851 851 850 849 849 848 847 846 845 845 844 843 843
854 853 852 851 850 850 849 848 848 847 847 847 847 847 847 847 847 846 846 846 846 846 846 847 847 847 846 846 847 846 846 846 845 845 845 845 845 845 845 846 846 846 847 847 848 849 849 850 850 851 851 852 852 852 852 852 852 852 851 852 852 853 853 854 854 854 854 854 853 853 852 852 851 851 850 849 849 848 847 847 846 846 845 844 844
854 853 853 852 851 850 850 849 848 848 847 847 847 847 847 847 847 847 847 847 847 847 847 847 847 847 847 847 848 847 847 847 847 846 846 846 846 846 847 847 847 848 848 849 850 850 850 851 852 852 852 852 852 852 852 852 852 852 852 852 853 853 854 854 854 854 853 853 853 852 852 852 851 851 850 850 849 849 848 848 847 846 846 845 844
854 854 853 853 852 851 850 850 849 848 847 846 846 847 847 848 848 848 848 848 848 848 848 848 848 848 848 848 848 848 848 848 848 848 847 847 848 848 848 848 849 849 850 850 850 851 851 852 852 852 852 852 852 852 852 852 852 852 852 853 853 853 853 853 853 853 853 853 853 852 852 851 851 851 850 850 849 849 849 848 847 847 846 846 845
854 854 853 853 852 852 851 850 849 848 847 846 846 847 847 848 848 848 848 848 848 849 849 849 849 849 849 849 849 849 849 849 849 848 849 849 849 849 849 850 850 850 851 851 851 852 852 852 852 852 852 852 852 852 852 852 852 852 852 853 853 853 853 853 853 853 853 853 852 852 852 851 851 851 850 850 850 849 849 848 848 847 847 846 846
854 853 853 852 852 851 850 850 849 848 847 847 847 847 847 848 848 848 848 848 849 849 849 849 849 849 849 850 850 850 849 849 849 849 850 850 850 850 850 850 851 851 851 852 852 852 852 852 852 852 852 852 852 852 852 852 852 852 852 852 853 853 853 853 853 853 852 852 852 852 852 851 851 851 851 850 850 849 849 849 848 848 847 847 846
854 853 853 852 851 851 850 850 849 848 848 848 847 847 847 848 848 849 849 849 849 849 849 849 850 850 850 850 850 850 850 850 850 850 850 851 851 851 851 851 851 852 852 852 852 852 852 852 852 852 852 852 851 851 851 851 851 852 852 852 852 852 852 852 852 852 852 852 852 852 852 852 851 851 850 850 849 849 848 848 848 847 847 847 846
853 853 852 852 851 850 850 849 849 849 848 848 847 847 848 848 848 849 849 849 849 849 849 850 850 850 850 850 850 850 850 850 850 850 851 851 851 851 851 851 852 852 852 852 852 852 852 852 852 852 852 852 851 851 851 851 851 851 851 851 851 851 852 852 852 852 852 852 852 852 852 852 851 851 850 849 849 848 848 847 847 847 846 846 846
Wind_Speed
18 18 18 19 20 20 20 23 26 28 28 26 26 25 25 26 28 28 27 26 25 23 20 21 22 23 25 24 23 24 23 22 25 26 26 25 24 23 23 23 23 23 22 22 21 20 21 20 20 20 19 18 20 21 21 22 22 24 26 28 28 25 22 21 15 9 14 19 19 19 21 20 20 20 19 18 18 18 19 18 18 18 18 18 17
21 19 18 19 20 19 19 22 25 27 26 27 26 25 25 25 26 27 27 25 25 24 23 23 24 26 28 26 25 25 24 24 27 27 25 24 24 23 23 23 22 22 22 22 21 20 19 20 19 19 19 19 19 20 21 22 22 23 25 27 28 28 25 23 19 12 11 16 19 20 22 22 21 21 20 20 20 20 21 21 20 20 20 20 19
23 20 16 15 18 17 15 17 23 27 26 27 27 25 25 25 25 26 26 26 25 24 25 25 25 27 28 26 24 25 25 24 25 25 24 24 24 23 22 22 22 22 23 22 22 20 19 20 21 20 20 20 20 20 20 21 21 22 23 25 27 28 27 25 21 17 15 15 18 21 23 24 23 22 21 21 21 21 22 22 21 21 21 21 22
23 20 18 14 14 15 15 15 18 25 27 26 27 26 25 25 26 26 27 27 26 24 24 24 25 27 28 25 24 24 23 23 22 22 22 23 23 22 21 21 21 21 22 22 22 21 21 22 22 21 22 22 21 21 20 19 20 20 20 21 23 25 26 25 24 22 19 17 18 21 24 25 24 23 22 21 22 23 24 23 22 22 22 22 23
22 18 17 15 13 12 14 15 14 19 24 24 24 25 25 26 27 27 27 26 26 25 23 25 27 28 27 25 25 24 22 22 21 20 20 20 20 21 20 20 20 20 20 20 21 21 22 22 22 21 22 22 22 22 21 20 19 19 19 19 20 22 22 22 24 25 22 20 21 21 23 24 24 24 24 23 23 24 25 25 25 24 24 24 24
22 18 15 13 12 11 11 11 11 14 18 20 22 23 22 23 24 26 26 25 26 26 25 26 28 28 27 26 24 23 22 22 21 20 19 18 18 19 19 19 19 18 18 18 20 21 21 21 21 20 21 22 23 23 22 21 20 20 19 18 18 20 20 18 20 23 24 24 22 21 23 24 24 24 25 25 24 25 26 26 27 26 26 26 26
24 20 17 13 10 9 10 10 10 12 15 18 21 23 22 20 21 25 26 24 25 26 26 27 26 25 25 25 24 23 23 23 22 20 19 18 17 18 18 18 18 18 18 18 19 20 20 20 20 20 20 21 22 23 23 22 22 21 19 18 17 19 21 21 20 21 24 25 23 22 23 24 24 23 24 24 24 24 24 25 27 28 28 28 28
25 23 20 16 12 9 8 10 12 12 15 17 19 21 23 22 22 24 25 24 23 24 26 27 25 23 24 24 23 24 24 23 22 21 19 18 17 17 17 17 18 19 19 19 19 19 18 19 19 19 19 19 20 21 22 22 22 20 18 18 18 19 22 25 24 23 24 24 23 22 21 21 22 20 20 20 22 24 25 26 27 28 28 29 29
27 26 25 22 18 14 10 11 12 12 15 17 18 20 24 24 22 23 24 24 23 22 24 25 23 22 25 25 24 24 25 24 23 21 21 19 18 17 17 17 17 18 19 19 19 18 17 18 18 18 17 17 18 19 19 20 20 18 16 16 18 19 20 24 25 24 24 24 22 20 19 19 21 20 20 22 25 27 27 27 28 29 28 28 30
29 28 28 27 24 21 17 14 12 13 15 16 18 21 24 24 23 24 25 24 23 24 25 24 21 22 25 25 25 25 25 25 23 22 21 20 19 18 17 17 17 17 18 19 18 18 17 17 17 18 17 17 17 17 17 17 18 17 14 14 16 18 19 22 25 24 23 24 24 22 19 20 22 24 25 27 28 27 26 26 29 28 25 25 28
31 30 30 29 28 26 22 18 15 12 14 17 17 21 24 25 24 25 25 23 23 25 26 23 20 23 26 26 25 26 25 25 23 21 20 20 20 19 17 17 17 17 17 18 17 16 17 17 17 17 16 16 16 15 15 15 14 14 13 15 17 18 18 21 24 23 23 24 24 23 24 25 25 27 27 27 26 25 25 25 26 25 21 19 21
32 32 32 32 31 29 26 21 17 13 12 17 20 22 25 26 26 27 26 24 25 26 24 22 22 25 26 26 25 25 25 25 23 22 20 19 19 18 17 16 16 16 16 16 16 16 16 16 15 14 13 13 13 13 14 14 12 10 10 13 16 16 16 18 20 21 22 23 22 22 24 24 22 21 24 24 23 23 23 22 22 22 20 19 20
32 33 33 34 32 31 28 22 17 13 11 17 21 23 26 28 28 28 27 26 26 25 23 22 25 26 25 25 23 23 24 24 24 22 20 19 18 17 16 16 16 16 16 17 17 17 16 15 13 12 11 11 11 12 13 14 12 8 7 9 10 9 9 9 11 13 18 21 19 16 15 15 12 11 13 16 17 18 19 20 21 21 21 21 23
33 33 34 34 33 32 28 23 18 14 10 13 18 23 28 31 29 26 26 27 25 24 25 25 26 25 25 24 23 21 21 21 22 22 20 18 17 17 16 16 17 16 15 15 16 16 16 15 14 12 11 11 11 11 12 12 12 10 8 10 12 12 11 11 10 8 9 12 13 10 8 7 7 6 6 6 6 6 8 10 11 13 14 15 16
33 33 34 34 34 32 30 26 22 18 13 7 14 25 28 29 28 26 26 27 26 26 28 28 27 26 25 25 24 22 21 20 20 21 20 19 18 18 18 18 17 15 13 12 13 15 16 15 14 13 12 11 11 11 11 11 12 11 9 8 11 13 14 15 15 14 13 12 12 12 11 8 8 7 5 4 3 3 2 2 2 3 5 6 8
33 33 33 33 34 33 31 28 27 25 21 11 7 24 29 28 27 27 27 25 25 26 27 29 29 27 25 25 25 24 22 20 20 20 21 21 21 20 19 19 18 16 14 13 14 15 14 14 13 13 12 11 10 10 10 11 12 13 12 11 11 11 11 13 14 13 13 12 12 11 9 7 6 4 2 1 2 2 2 2 2 4 5 6 8
31 32 32 32 32 33 32 29 28 29 28 24 11 9 25 30 29 28 29 28 27 27 27 28 28 27 25 24 24 25 23 20 19 20 20 22 22 22 21 19 19 18 17 16 16 16 15 13 12 12 11 10 10 10 11 12 13 14 14 14 13 12 12 12 11 10 9 9 8 8 6 5 3 2 1 1 2 3 3 3 3 5 5 4 4
29 29 31 31 31 33 34 32 29 30 32 32 27 13 10 26 30 30 31 31 30 28 27 28 27 26 25 24 23 23 23 21 19 19 18 19 21 22 22 21 20 20 19 19 18 17 16 15 13 12 12 11 11 11 11 13 14 16 16 16 15 15 14 12 11 10 9 8 8 8 7 6 4 3 3 2 1 2 2 3 3 3 5 5 3
26 26 28 31 32 33 34 34 31 31 33 34 32 26 13 14 26 31 32 33 31 29 28 30 30 27 26 26 24 23 23 21 20 20 19 19 20 21 23 23 23 23 22 21 20 18 17 17 15 14 15 15 14 13 12 12 13 14 13 13 14 14 12 11 10 10 10 10 9 9 9 9 7 6 6 5 4 5 6 6 6 6 7 8 8
24 24 26 29 32 33 34 35 34 32 32 33 33 30 24 16 19 26 30 32 33 31 28 30 31 29 28 28 27 25 23 20 19 20 21 22 22 23 23 25 26 25 24 22 21 19 17 17 16 15 15 15 14 13 11 10 10 10 9 9 10 11 10 9 10 9 9 10 10 10 9 9 8 7 6 6 6 7 7 7 8 9 9 9 9
23 24 25 26 29 30 31 33 34 34 33 34 34 31 27 23 20 21 24 29 35 34 29 29 31 29 28 29 29 26 24 21 18 18 21 22 23 24 24 25 26 26 24 22 21 19 17 16 16 15 14 13 12 11 10 8 7 8 8 8 10 11 10 11 11 11 11 11 12 12 11 10 9 8 8 8 8 8 8 9 9 10 11 11 11
23 23 23 24 25 26 27 28 31 32 33 34 35 33 28 26 25 23 22 23 30 36 33 30 30 30 29 29 28 26 24 22 20 18 19 20 20 21 24 25 25 25 24 22 20 18 16 15 15 14 12 12 11 9 9 8 7 8 9 9 10 10 10 10 11 11 11 12 12 11 11 10 9 10 9 9 10 9 10 10 11 11 12 12 12
22 22 22 23 22 23 24 25 26 28 29 30 32 32 30 28 27 27 25 23 24 30 33 30 28 29 30 29 28 25 23 21 19 17 17 18 18 18 19 19 18 19 21 20 18 17 15 14 14 13 11 11 10 9 9 8 8 9 10 10 10 9 8 8 9 9 10 10 10 11 12 11 10 10 10 10 11 11 11 12 13 14 14 14 14
21 22 22 22 21 21 22 23 23 23 24 25 26 27 29 29 28 28 27 26 23 24 28 29 27 26 27 27 26 25 23 21 17 15 14 15 15 14 14 13 12 13 15 16 16 16 15 14 13 13 12 11 10 9 9 10 10 11 11 10 10 8 8 8 8 9 10 11 11 12 12 11 10 11 11 12 12 13 13 14 15 16 17 17 15
20 21 22 23 21 20 20 21 21 21 21 21 22 22 23 25 25 24 24 25 24 22 23 25 26 24 24 24 24 23 22 20 17 14 12 12 12 12 12 12 11 12 14 16 16 16 16 17 16 16 16 15 14 13 13 13 12 12 11 10 9 9 9 9 10 10 12 12 12 12 11 10 10 10 11 12 13 15 16 17 18 18 18 17 15
21 20 21 22 22 21 20 21 21 20 20 20 19 19 19 19 20 19 18 21 22 21 20 21 22 22 22 21 20 19 18 16 15 13 12 10 9 9 9 10 11 12 15 17 17 18 20 20 19 18 18 17 15 15 16 15 13 13 12 11 11 11 11 11 11 12 13 12 11 10 10 9 9 9 10 12 14 15 16 16 17 16 16 16 14
23 20 19 20 21 22 22 22 22 22 21 21 20 19 18 17 16 15 14 16 18 18 18 18 18 19 19 18 17 17 16 14 12 11 9 8 7 7 7 9 11 13 15 17 18 20 22 21 20 19 19 18 18 18 18 17 15 15 14 13 13 12 11 11 11 12 12 10 9 9 9 9 9 10 11 12 12 12 12 13 13 14 14 15 14
23 22 19 17 18 20 22 22 23 24 24 23 22 21 20 18 16 14 12 12 13 15 15 15 15 14 14 14 14 14 14 12 10 9 7 7 6 6 8 10 12 14 17 20 22 23 23 22 22 21 21 21 20 19 18 17 16 15 15 14 13 12 11 10 11 11 11 10 9 9 9 9 10 10 10 10 10 10 11 11 12 14 14 14 14
22 22 20 18 16 17 19 21 21 22 23 24 24 23 22 20 18 16 13 11 11 13 13 13 13 12 13 13 12 13 13 11 10 9 8 7 8 8 9 12 16 20 23 25 26 26 24 23 21 20 20 19 19 18 17 16 16 15 14 13 12 11 10 9 10 11 11 10 10 10 9 10 10 10 10 10 11 12 13 13 14 15 14 14 14
21 20 20 19 16 14 15 17 18 19 21 22 22 23 22 21 20 19 16 13 11 11 11 12 11 11 13 13 13 13 12 11 11 9 8 8 10 12 14 18 22 26 27 26 25 24 22 21 20 19 18 18 17 17 16 15 15 14 13 12 11 10 11 11 11 11 10 10 10 10 10 11 12 12 12 13 13 14 14 15 15 16 16 16 16
18 18 18 19 18 15 14 14 14 14 16 18 20 22 22 22 20 19 17 15 14 14 14 14 13 12 12 12 12 11 10 10 10 10 9 10 13 15 18 21 24 25 23 21 21 21 20 20 20 19 18 17 17 16 14 13 13 13 12 12 12 11 12 12 11 10 10 11 12 12 12 13 14 14 14 14 14 14 15 16 17 17 16 15 14
14 14 15 16 16 15 14 13 12 11 12 14 17 20 22 22 21 20 18 17 17 16 16 15 14 13 12 11 10 9 9 9 11 11 11 13 16 18 20 21 21 19 16 16 19 21 19 19 19 17 16 16 15 13 12 12 11 11 12 13 13 12 12 12 12 12 13 13 14 14 14 14 14 14 14 14 14 15 16 17 18 18 17 14 12
12 12 13 13 14 14 13 13 12 11 10 11 14 16 19 21 21 20 19 19 18 18 17 16 15 14 14 13 12 12 12 13 14 14 14 16 18 19 19 19 17 14 11 13 18 20 17 17 17 15 14 14 13 12 12 12 12 12 12 12 13 13 13 13 13 13 14 14 14 15 15 14 14 14 14 13 13 14 14 15 15 16 17 16 13
10 10 11 11 13 13 13 12 12 10 10 11 12 14 16 18 19 19 19 18 18 18 17 16 16 16 16 16 15 15 15 16 17 17 16 17 17 17 17 16 14 11 10 13 17 17 15 15 15 14 14 14 13 13 14 13 12 12 12 13 14 14 14 13 13 14 14 14 15 16 16 16 16 15 14 13 13 13 13 14 14 15 15 15 14
9 8 9 10 11 12 12 12 11 11 10 10 11 13 14 15 15 16 16 16 16 16 15 15 14 14 15 15 15 15 15 16 16 16 16 16 15 13 13 15 15 14 14 15 15 14 14 14 14 14 14 14 13 13 13 13 12 12 14 15 16 15 14 14 14 15 15 15 16 16 16 15 15 14 14 14 14 14 14 14 14 14 13 13 12
9 7 7 8 8 9 10 10 10 11 10 10 10 10 10 11 11 12 13 13 13 13 13 12 12 12 12 12 12 12 13 13 13 12 12 11 8 6 8 14 16 16 15 15 14 14 14 14 14 14 14 13 13 12 12 13 14 15 16 17 16 16 16 16 16 15 16 16 15 15 14 15 15 14 15 15 16 15 15 14 14 14 13 12 12
7 7 7 7 6 6 7 8 9 9 9 8 8 8 9 9 8 9 9 10 10 10 10 10 10 11 12 12 11 10 10 10 10 9 9 7 5 4 8 13 15 15 15 14 13 14 15 14 13 13 12 12 12 13 14 16 17 18 18 17 17 17 17 17 16 16 15 15 15 14 14 15 15 15 15 15 15 14 14 14 14 13 12 11 11
5 6 7 8 7 6 5 5 5 5 5 5 6 6 7 7 7 7 8 9 9 8 8 7 6 9 12 12 11 10 9 9 8 9 8 7 6 8 11 13 14 15 16 15 14 15 15 14 12 12 13 14 15 17 18 19 18 18 18 18 18 18 17 16 16 15 14 14 14 14 14 14 14 13 14 14 14 13 13 13 13 13 13 13 12
4 5 6 7 8 7 6 3 1 2 3 3 4 4 5 5 6 6 7 7 8 8 7 6 6 7 9 9 7 6 5 7 9 10 10 9 8 9 12 14 15 15 14 14 14 14 14 13 13 14 16 17 18 18 19 18 18 18 17 17 17 16 15 14 14 13 13 13 12 12 12 13 12 12 12 13 13 13 13 13 13 13 14 14 14
5 5 5 6 7 7 6 3 1 1 0 2 2 2 3 4 5 6 5 5 6 7 7 7 7 7 6 5 3 3 4 6 8 9 9 11 12 12 12 13 13 13 13 14 15 14 14 14 14 15 16 17 16 16 16 16 16 15 14 14 14 13 12 12 12 12 12 12 12 11 11 12 11 11 11 12 13 14 14 14 15 14 14 15 14
6 6 6 6 6 6 4 2 1 3 3 1 0 0 1 2 3 4 4 3 4 5 6 7 7 5 5 4 4 5 5 4 5 7 9 12 12 12 11 11 11 11 13 14 15 14 13 13 13 13 13 13 13 12 12 12 11 10 10 10 10 10 10 10 11 12 12 12 11 11 11 11 11 11 11 11 12 13 13 14 15 15 14 14 13
8 8 7 6 5 5 4 1 1 3 4 4 2 2 1 1 2 3 3 3 3 5 6 6 6 5 4 4 4 5 5 3 5 8 11 11 11 10 10 9 9 9 11 13 14 13 12 12 12 12 11 11 11 11 10 9 7 7 7 8 8 9 9 9 10 11 11 10 9 9 9 10 10 10 10 10 11 12 12 13 14 15 15 14 12
10 11 9 6 6 7 6 2 1 2 4 5 4 3 3 3 3 3 3 3 3 4 5 5 5 5 4 3 4 6 7 7 8 9 10 10 9 8 8 8 7 8 9 12 13 12 11 10 10 10 10 11 10 9 9 8 6 5 6 7 8 8 9 8 8 8 8 7 7 8 8 9 9 9 9 9 11 12 12 13 14 16 16 15 13
10 10 9 6 4 7 7 4 3 3 4 5 6 5 5 4 4 5 5 4 4 4 4 4 5 4 3 3 5 7 8 8 9 10 11 10 9 9 9 9 8 9 10 12 13 12 10 10 10 10 10 10 9 8 8 7 6 5 5 6 7 7 7 6 5 5 5 5 6 7 8 8 9 9 9 10 11 11 12 12 14 15 15 14 14
9 10 9 6 4 6 7 8 7 5 5 6 7 8 7 5 5 6 6 5 4 5 5 4 3 2 2 3 6 6 5 4 5 7 8 9 9 9 9 9 9 10 11 13 13 11 10 9 9 8 8 7 7 6 6 5 5 4 4 4 4 4 4 3 3 3 4 4 5 6 7 8 9 10 10 10 10 11 12 12 13 14 14 13 12
8 9 10 8 7 8 8 8 9 8 6 7 7 8 8 6 5 6 6 5 5 5 5 4 3 2 1 3 4 3 2 2 2 3 5 6 7 7 8 8 8 8 8 9 10 9 8 7 7 6 5 5 4 4 3 3 5 4 3 4 3 2 2 3 3 4 4 4 5 7 8 8 9 10 10 10 10 11 12 12 12 13 13 12 10
8 9 10 9 9 10 8 7 9 10 7 6 7 8 8 6 5 5 5 5 5 6 5 5 5 4 2 3 3 3 2 1 0 2 3 4 4 5 6 6 7 6 6 6 6 6 6 5 4 3 3 3 3 2 1 1 2 3 4 5 3 2 2 3 4 4 5 5 6 7 8 8 9 10 9 9 9 10 10 12 12 13 12 11 10
8 10 10 10 11 11 9 8 8 9 7 5 6 8 7 6 5 4 5 5 5 6 7 7 6 5 4 4 4 4 2 1 1 2 2 1 1 4 6 6 6 6 6 5 5 5 5 5 4 2 1 1 1 2 1 0 1 3 4 4 4 2 3 4 4 4 5 5 5 6 7 8 9 9 8 8 9 9 9 10 12 12 12 10 8
7 9 10 12 13 12 10 8 8 7 6 4 6 8 8 6 5 4 5 5 5 7 8 8 7 6 6 5 3 3 3 1 0 1 2 1 1 3 6 6 6 6 6 5 4 3 4 4 3 1 1 1 2 2 0 2 3 3 4 4 3 2 2 3 3 3 4 5 6 6 7 7 7 7 8 9 9 10 9 9 10 11 10 8 6
7 8 10 12 14 12 10 9 9 8 6 6 7 9 8 6 5 5 5 5 5 7 8 9 8 7 7 6 5 6 6 3 1 1 3 4 2 2 4 6 6 6 5 4 3 3 3 3 2 1 2 2 0 1 2 3 3 3 3 3 2 2 2 1 1 2 4 6 6 6 5 5 6 7 9 11 11 10 9 8 8 9 8 6 4
7 8 10 11 12 10 9 9 9 8 7 7 8 10 9 7 6 6 6 6 6 6 7 8 8 8 8 8 7 7 7 5 3 3 4 4 3 2 3 4 6 6 5 4 3 2 2 2 1 1 3 2 3 3 3 4 4 3 3 2 2 2 1 1 2 3 4 5 5 5 6 6 7 10 12 12 10 8 7 7 6 7 6 4 1
Wind_Direction
329 305 286 269 260 255 247 238 231 228 225 222 220 219 219 216 211 209 208 209 210 206 200 203 206 209 213 212 211 216 216 208 209 211 210 210 210 212 213 212 212 214 214 215 216 216 216 216 217 216 216 219 217 214 213 212 213 213 212 210 207 209 212 205 203 211 208 214 223 224 224 224 222 223 223 220 216 213 212 214 215 216 216 217 218
351 335 307 280 268 263 257 248 239 233 227 223 221 220 219 216 211 210 210 210 210 208 203 203 207 211 212 209 208 213 213 208 207 208 208 208 208 210 211 210 211 211 211 212 212 213 217 218 220 217 216 220 220 218 216 214 214 215 216 215 213 215 217 213 212 214 211 214 219 223 224 225 224 223 223 222 219 216 214 214 217 220 222 224 225
357 356 337 294 269 265 269 260 242 232 227 222 220 220 217 213 211 212 213 212 210 208 207 204 205 211 211 205 204 207 206 205 206 207 208 208 208 210 211 211 212 211 211 212 212 213 217 222 224 222 220 222 222 221 219 216 217 219 218 217 217 218 218 217 217 221 221 219 218 221 224 225 225 224 224 225 224 222 219 218 220 223 227 229 230
358 2 357 332 293 277 283 282 251 228 221 218 218 218 216 215 215 212 213 213 209 205 207 206 205 209 208 204 204 205 203 202 204 205 207 209 210 210 211 212 214 215 216 215 215 216 218 222 226 226 223 223 224 222 220 219 221 219 217 217 219 221 220 220 224 228 228 225 223 224 225 226 226 224 224 225 226 227 226 224 224 228 231 233 235
0 4 0 348 327 301 286 287 271 236 219 213 215 218 216 213 211 210 212 213 208 204 205 207 206 207 207 205 205 205 204 202 202 202 203 205 209 211 212 214 216 219 219 217 217 219 220 222 223 224 224 224 225 224 221 221 222 219 219 219 219 220 221 224 228 230 231 233 231 225 223 225 225 224 223 224 225 227 228 227 228 231 235 238 241
1 2 358 346 333 320 298 287 277 247 225 215 216 220 221 216 210 209 212 214 210 204 205 209 207 205 205 205 206 206 206 206 205 203 201 202 205 209 211 214 216 217 217 217 219 220 221 223 222 222 224 224 225 225 223 223 224 223 222 217 213 216 219 227 234 230 232 238 235 225 222 223 223 222 222 223 226 227 227 228 230 233 237 240 244
0 359 357 351 336 325 312 295 274 245 227 219 217 217 219 220 220 217 216 217 212 203 204 210 209 206 206 205 206 208 208 209 209 207 205 205 204 206 210 214 215 216 217 217 220 223 224 224 222 223 225 226 227 227 227 227 227 227 223 212 209 216 220 228 238 236 234 236 232 226 224 223 221 220 220 222 227 231 229 229 233 235 237 241 245
1 359 359 357 348 330 299 283 274 250 231 225 220 214 210 211 222 226 220 217 214 204 202 206 205 208 212 209 207 207 206 208 209 208 207 207 206 208 211 213 214 215 217 217 219 224 228 228 227 228 229 229 230 230 230 231 230 227 220 210 208 213 217 224 233 235 233 230 226 223 222 220 218 216 217 219 223 229 231 230 235 239 240 242 246
2 1 359 356 350 336 303 279 270 253 235 225 218 215 209 205 215 226 220 214 213 209 206 202 198 205 211 209 206 207 206 207 209 208 208 206 207 209 211 215 217 217 217 217 220 225 229 231 233 235 237 237 235 233 233 233 229 222 214 210 209 209 214 224 229 228 223 219 219 219 216 217 215 208 209 216 221 227 230 229 235 243 245 247 250
5 3 359 356 353 345 328 304 282 255 234 223 217 214 209 204 210 218 215 210 209 208 206 201 198 205 209 208 208 209 208 208 209 209 210 208 207 208 212 217 219 219 220 220 222 226 230 234 236 237 242 244 241 236 234 233 230 224 222 223 219 212 214 224 226 222 215 212 213 211 209 216 218 212 215 223 227 229 229 228 234 242 246 251 257
8 5 2 358 357 354 343 327 307 272 236 223 218 212 207 206 208 209 206 203 203 204 205 202 203 210 210 210 212 210 207 207 208 209 210 210 210 211 214 216 214 215 219 219 220 225 229 232 236 238 241 244 242 236 227 223 225 226 228 228 224 217 217 223 223 218 213 212 212 210 210 218 223 221 222 227 228 229 231 232 235 240 241 247 258
11 8 6 3 2 360 353 340 325 301 253 224 212 206 207 205 203 203 203 202 204 204 204 203 205 209 210 210 211 209 207 207 207 207 207 207 208 210 210 208 206 208 212 214 217 221 224 227 231 233 235 236 233 223 210 205 209 212 210 210 214 215 217 223 225 222 217 213 210 210 215 222 227 228 227 229 231 235 238 240 240 242 241 240 249
13 10 9 7 4 2 359 350 337 323 278 231 210 201 203 201 197 199 200 200 202 201 196 197 201 202 203 205 203 201 202 203 203 205 205 203 204 205 205 204 203 205 209 212 215 216 215 216 216 218 222 222 219 213 205 201 201 187 159 156 168 178 186 198 213 220 221 219 213 207 212 221 225 227 227 230 236 241 243 245 247 249 249 248 255
15 12 10 9 7 4 4 0 352 344 309 250 215 197 197 196 192 191 192 193 197 195 188 189 191 190 190 191 187 185 187 190 193 197 198 197 198 197 195 194 193 194 200 207 209 206 205 203 200 204 212 213 212 210 203 198 192 177 141 120 122 125 124 123 128 145 173 195 194 174 160 168 168 160 170 193 211 223 231 239 244 247 249 253 260
17 15 12 11 10 7 8 10 9 5 350 295 205 189 188 187 182 180 185 190 191 186 182 181 179 176 175 175 172 169 169 171 177 185 187 185 185 185 182 179 177 177 179 183 186 186 187 189 191 199 208 209 206 205 200 194 185 173 159 134 118 114 108 100 100 106 115 130 143 138 129 131 137 140 143 154 164 162 163 176 197 235 257 270 280
19 17 15 13 13 12 11 15 21 22 17 13 173 178 176 174 173 174 176 178 175 171 169 167 165 163 162 162 161 157 155 156 163 171 176 176 177 178 175 170 166 163 158 155 157 160 164 171 181 190 198 199 196 195 194 190 180 169 160 145 126 115 105 96 94 96 100 107 116 121 124 127 132 138 147 180 221 240 243 262 290 298 308 314 303
18 18 17 16 17 19 18 19 26 34 32 26 27 165 170 166 168 171 166 160 157 156 154 151 150 152 151 151 151 149 146 147 154 161 168 175 177 175 171 165 158 152 146 142 144 144 144 150 160 167 173 177 175 177 185 184 173 160 149 138 128 121 114 109 108 106 102 103 106 108 111 113 114 120 132 246 260 275 280 283 297 307 326 338 294
16 18 20 21 22 25 26 25 29 39 43 35 24 21 146 156 159 163 159 151 146 144 140 137 137 138 139 140 141 141 140 142 149 154 159 169 175 172 167 160 150 143 140 136 137 138 136 136 142 146 145 144 145 153 168 173 164 150 142 135 125 116 110 109 111 114 112 109 105 104 103 100 101 99 85 69 32 343 351 41 42 359 1 16 344
14 16 22 28 31 32 34 33 34 41 48 46 35 23 35 121 142 148 148 143 137 132 128 127 124 122 122 126 128 130 131 135 145 151 152 158 164 164 162 154 143 137 136 135 133 134 134 134 135 136 134 132 134 139 148 157 152 143 141 139 127 116 111 112 113 117 120 116 108 105 104 100 97 93 85 74 55 36 34 42 36 20 18 19 10
18 21 26 33 38 39 39 40 40 42 50 55 50 35 28 56 107 125 130 130 127 121 115 115 115 112 111 113 113 115 118 123 135 146 150 151 152 154 156 151 142 136 134 133 131 130 132 133 132 132 132 133 136 137 140 146 145 140 143 143 129 116 113 115 117 121 122 117 110 106 105 102 98 92 84 72 58 46 38 32 20 12 11 7 5
24 28 31 36 41 43 42 43 46 47 52 60 62 51 37 38 60 87 103 113 115 112 104 100 102 102 104 107 106 104 107 111 120 135 143 145 145 149 150 147 144 141 135 130 128 125 124 127 128 128 131 132 134 135 135 136 138 137 134 127 119 117 117 116 117 118 117 113 110 105 99 94 86 78 68 58 51 42 31 25 19 13 7 358 352
26 28 32 37 43 49 50 48 49 51 53 60 67 66 56 46 46 58 70 85 98 101 97 91 89 88 90 96 100 101 103 105 106 114 126 132 136 140 140 139 143 145 140 133 129 123 119 120 121 122 124 123 121 122 121 119 118 118 115 113 115 119 121 118 117 116 111 107 104 95 84 74 65 59 52 46 41 32 20 14 9 4 359 351 343
31 29 32 36 41 51 58 58 55 54 54 57 65 70 71 64 55 55 57 60 72 87 91 88 84 82 81 84 90 94 98 101 102 103 110 118 121 123 126 128 135 143 140 133 128 124 119 117 115 117 118 113 105 101 100 99 98 101 105 110 114 116 116 112 108 104 98 92 85 77 69 60 51 43 35 27 21 12 3 357 351 347 343 338 334
35 33 34 38 41 47 57 64 64 62 59 59 62 68 73 76 72 66 63 60 58 68 80 84 81 78 78 79 83 86 87 90 94 95 97 105 110 111 113 115 122 131 131 126 124 123 121 118 116 116 115 111 106 103 100 97 98 100 101 103 104 104 103 101 98 94 88 79 74 71 65 55 44 34 23 13 2 351 344 338 334 333 330 328 329
36 37 37 41 44 47 54 62 69 72 71 68 67 67 70 77 79 76 72 72 69 64 70 79 81 79 78 78 79 82 82 82 85 87 87 92 99 103 107 113 118 123 124 123 123 123 124 124 121 116 112 111 113 111 104 100 101 102 102 102 99 95 92 92 92 88 83 78 73 68 59 46 35 23 8 356 345 336 331 328 327 327 327 327 332
37 39 40 43 47 51 56 60 66 74 78 78 78 79 76 76 77 74 70 71 73 69 68 75 80 82 82 82 82 84 86 87 89 91 91 91 95 102 111 120 125 128 125 122 121 123 126 127 125 120 116 115 115 111 107 106 108 106 104 102 98 92 88 85 84 82 79 74 65 55 44 30 16 3 350 343 338 336 337 337 336 339 342 344 349
41 40 40 42 46 51 57 60 63 68 73 78 83 87 90 92 91 86 80 76 75 72 69 69 71 74 77 80 82 83 83 80 80 83 89 97 107 120 131 133 132 132 129 125 124 127 129 129 125 122 119 115 113 111 109 108 105 101 96 93 90 87 83 81 80 77 72 65 56 45 32 16 3 356 351 349 349 351 354 354 355 358 1 1 3
45 42 40 41 43 49 55 59 63 64 67 70 73 75 80 88 91 90 92 97 97 93 88 85 82 82 83 84 85 86 86 84 83 84 92 104 117 133 141 138 137 139 138 135 133 132 130 127 122 118 113 109 106 104 102 99 94 91 88 86 86 85 83 80 74 68 62 56 48 38 26 18 12 7 7 10 13 15 14 12 11 11 11 12 12
47 44 41 41 45 48 51 55 60 65 67 68 68 66 66 70 75 76 77 88 102 106 106 105 104 107 107 105 104 103 103 102 102 104 111 122 131 140 145 145 146 144 141 138 134 130 125 119 114 110 106 102 99 97 95 93 91 89 87 85 84 81 77 70 63 60 56 48 41 37 34 34 32 29 33 38 36 30 27 25 23 21 21 23 23
47 45 43 42 45 49 51 52 55 63 71 74 74 72 68 65 67 70 71 76 86 91 91 92 98 107 113 112 113 115 113 111 111 116 125 136 138 138 139 143 143 140 137 136 131 124 117 110 106 104 102 101 99 97 96 94 93 91 88 84 79 75 72 66 62 59 56 50 50 53 53 52 51 48 48 47 42 36 34 33 32 31 31 32 32
46 46 45 44 45 48 51 52 53 61 72 80 82 82 79 74 70 71 73 77 81 82 82 84 88 95 103 107 109 112 113 117 122 127 134 136 133 130 133 137 138 136 138 137 126 115 111 107 103 102 103 103 102 101 99 99 98 97 96 91 83 76 72 70 68 67 66 67 69 68 63 60 57 53 50 46 42 39 37 37 37 36 36 36 36
47 45 45 44 45 48 50 52 56 64 75 83 86 87 88 86 81 77 77 79 81 81 81 81 80 82 85 89 93 97 105 120 128 131 131 130 129 129 132 135 135 137 145 139 119 109 109 107 104 104 104 103 103 103 102 102 102 101 100 94 85 77 74 77 79 79 78 77 75 69 64 59 55 51 48 44 40 39 38 38 37 35 33 35 40
45 45 45 45 47 50 52 52 58 71 87 94 93 92 93 95 95 91 86 84 83 82 79 75 73 73 74 77 82 91 105 120 126 125 124 124 125 126 128 130 132 139 148 133 115 109 109 108 106 107 106 104 105 106 104 104 104 101 96 89 84 83 84 86 85 83 80 77 73 67 62 57 53 49 46 43 42 42 41 40 39 36 31 30 33
33 40 47 50 54 58 58 56 57 67 88 101 103 100 100 103 105 102 96 90 85 82 80 76 72 70 71 75 82 94 107 117 121 121 122 123 123 124 124 123 122 123 124 119 113 111 112 111 110 110 110 110 110 109 106 105 102 98 93 91 92 94 93 90 86 83 79 75 70 65 61 58 56 54 52 51 51 48 44 41 38 36 33 29 29
15 29 48 57 61 63 63 62 60 61 75 95 105 106 106 107 105 100 94 89 83 78 78 82 83 80 78 79 83 91 100 108 112 115 118 119 120 122 121 116 111 108 108 109 111 113 115 115 115 114 113 113 113 110 107 105 101 98 100 101 100 98 94 89 85 82 79 75 71 68 66 63 61 59 57 54 52 48 44 41 37 33 31 27 24
10 19 41 54 60 65 65 66 68 69 74 88 102 111 113 112 106 100 94 90 84 78 80 91 101 102 97 95 94 94 97 101 105 108 111 114 118 122 118 113 111 109 108 109 112 115 117 118 118 117 114 113 113 110 108 107 106 105 104 102 99 96 92 88 86 83 81 79 77 74 72 70 66 62 58 55 52 49 45 42 38 33 29 26 25
20 27 38 40 45 57 63 69 77 81 80 84 98 116 126 124 115 106 97 89 83 79 80 94 112 118 113 110 108 105 101 100 100 97 95 96 99 108 116 117 116 114 114 115 118 120 120 120 119 116 114 114 115 113 112 110 108 105 102 99 96 95 92 90 88 85 82 81 80 76 71 66 62 58 55 52 49 45 42 39 37 34 28 27 27
29 36 35 28 27 32 39 55 76 83 83 84 89 104 125 135 129 112 100 93 87 81 75 79 103 119 117 113 110 109 103 97 91 86 81 79 87 107 118 121 119 117 118 120 122 122 120 119 118 117 116 117 116 114 112 109 105 102 100 99 98 97 94 91 88 85 81 77 74 69 64 59 55 51 48 46 42 38 35 33 30 28 26 25 23
11 19 20 18 18 15 2 353 28 73 80 93 90 87 106 130 134 126 117 105 94 88 80 76 90 109 113 111 110 107 97 87 82 81 82 86 97 114 123 121 118 119 122 124 124 121 117 117 119 119 118 117 114 112 111 108 103 99 98 99 101 100 97 92 85 79 74 69 65 61 56 51 50 48 45 41 36 30 28 26 24 21 19 18 18
336 346 357 7 12 7 355 336 279 261 60 96 102 87 95 116 130 135 134 119 101 95 92 91 95 98 93 81 54 29 52 81 88 89 96 105 111 116 116 112 111 119 127 129 126 122 119 117 120 121 121 117 114 112 111 109 106 103 103 104 105 102 97 90 81 74 71 67 64 58 48 47 54 57 51 42 35 28 25 24 22 21 19 19 19
331 330 334 349 5 11 15 25 284 263 253 224 201 55 92 120 137 149 154 141 116 106 101 99 97 90 78 62 37 18 28 74 104 113 118 120 119 118 113 106 105 117 129 130 126 125 123 120 120 122 121 116 113 112 110 109 111 112 114 116 114 107 99 89 79 73 70 66 59 53 48 52 60 60 52 44 37 32 29 25 21 20 21 20 20
341 336 332 338 357 5 10 32 328 282 260 246 252 278 277 239 189 187 190 169 134 122 118 116 108 96 84 71 43 20 20 59 122 133 132 127 121 118 119 116 110 114 127 131 129 128 128 122 118 118 116 113 112 112 110 111 117 124 125 123 116 106 97 87 76 70 68 64 57 52 52 57 59 51 44 41 35 31 30 25 20 19 19 18 18
345 342 339 343 5 13 9 348 292 282 263 252 250 252 257 256 240 228 224 203 168 147 139 134 122 105 92 81 65 59 65 84 109 125 132 133 127 121 126 131 121 114 124 134 133 132 132 128 123 121 119 116 115 114 113 113 117 124 126 119 108 98 88 80 74 70 64 61 60 55 51 52 51 44 38 35 29 26 26 22 18 18 18 19 21
348 348 345 343 11 30 31 18 338 303 274 262 257 248 247 257 256 248 244 227 196 175 160 152 138 108 75 74 88 86 82 88 101 110 114 117 114 111 117 124 116 107 119 133 136 131 130 130 130 130 129 126 121 116 111 103 98 105 113 108 99 91 83 77 80 81 72 61 56 50 44 42 41 36 30 27 26 26 25 21 17 16 16 17 20
352 356 355 351 358 16 21 19 9 343 291 269 263 250 244 257 271 264 258 248 221 198 178 168 161 119 75 98 109 100 81 76 95 105 106 104 102 101 107 114 109 103 113 130 137 135 130 129 130 132 135 135 129 123 115 94 74 80 103 110 98 89 81 73 75 82 78 66 52 42 35 31 29 27 25 24 25 25 24 23 20 17 14 14 16
344 352 357 2 6 3 359 1 2 348 306 270 262 250 241 250 270 270 265 258 235 211 194 189 201 206 136 118 124 120 89 65 97 114 111 107 107 106 108 113 114 111 117 130 141 147 146 142 139 138 137 132 126 123 116 73 51 63 112 142 136 103 79 73 70 69 69 62 47 35 27 20 17 16 16 18 19 18 18 20 19 17 14 12 13
340 350 352 352 357 359 353 350 354 349 323 275 254 245 237 242 259 267 266 256 234 217 211 215 220 218 184 134 140 148 122 51 126 153 131 112 117 128 125 119 119 122 127 136 149 164 172 170 165 155 136 116 100 94 89 36 42 77 124 147 148 113 69 68 71 66 58 48 35 25 16 10 7 5 3 4 4 3 5 7 7 9 10 10 9
345 357 355 348 348 348 341 337 345 348 337 295 255 238 231 237 256 267 265 251 231 220 219 219 218 213 196 164 155 159 141 60 76 167 151 99 112 155 157 144 131 131 139 150 165 182 191 193 191 174 121 79 30 7 347 310 122 120 132 140 137 114 84 74 67 56 45 31 17 8 2 360 0 358 354 352 351 351 352 351 349 352 359 4 7
337 348 350 351 352 348 336 325 326 330 325 295 249 229 225 234 252 266 265 252 238 232 231 226 217 210 198 178 172 193 200 179 83 199 195 190 167 176 178 173 158 146 147 152 158 167 178 184 177 141 28 331 309 306 263 148 140 138 142 143 138 124 108 92 69 47 30 10 355 347 344 348 356 357 352 347 342 339 339 338 336 338 346 352 357
322 335 341 345 348 344 331 316 313 314 309 281 245 227 225 233 247 258 260 250 238 238 239 236 231 225 216 207 208 214 212 209 251 247 215 211 211 194 190 190 182 167 160 159 146 125 123 135 130 76 12 351 3 138 140 141 140 139 140 143 149 160 155 140 52 8 1 353 348 346 345 348 352 351 345 341 335 328 327 330 329 329 332 335 342
309 330 338 339 338 334 320 305 302 306 305 282 249 233 231 236 241 246 251 250 247 249 248 244 241 239 236 234 232 227 223 225 232 218 208 213 219 211 199 201 195 185 182 187 180 132 98 118 124 24 15 42 98 115 124 130 134 134 133 140 158 176 190 251 298 319 337 341 343 347 344 342 341 338 335 334 331 324 323 324 320 316 314 309 314